Weather History for KMZH - May, 2009

Change the Weather History Date:

Saturday, May 9, 2009

  Actual Average Record
Temperature  
Mean Temperature 42 °F -  
Max Temperature 48 °F 65 °F 84 °F (1953)
Min Temperature 37 °F 34 °F 18 °F (1966)
Degree Days  
Heating Degree Days 22    
Moisture  
Dew Point 33 °F    
Average Humidity 68    
Maximum Humidity 93    
Minimum Humidity 54    
Precipitation  
Precipitation 0.00 in - - ()
Sea Level Pressure  
Sea Level Pressure 29.96 in    
Wind  
Wind Speed 7 mph (NNW)    
Max Wind Speed 12 mph    
Max Gust Speed 18 mph    
Visibility 10 miles    
Events Rain    
Averages and records for this station are not official NWS values.
T = Trace of Precipitation, MM = Missing Value Source: NWS Daily Summary

Daily Weather History Graph

Daily Weather History Graph

Search for Another Location

Airport or City:

Trip Planner

Search our weather history database for the weather conditions in past years. The results will help you decide how hot, cold, wet, or windy it might be!

Date:

Astronomy

May. 09, 2009 Rise Set
Actual Time 5:45 AM CDT 8:31 PM CDT
Civil Twilight 5:10 AM CDT 9:05 PM CDT
Nautical Twilight 4:26 AM CDT 9:49 PM CDT
Astronomical Twilight 3:35 AM CDT 10:41 PM CDT
Moon 9:44 PM CDT (5/9) 5:28 AM CDT (5/9)
Length of Visible Light 15h 55m
Length of Day
14h 45m
Full, 100% of the Moon is Illuminated
May 9
Full
May 17
Last Quarter
May 24
New
May 30
First Quarter
Jun 7
Full

Hourly Weather History & Observations

Time (CDT) Temp. Windchill Dew Point Humidity Pressure Visibility Wind Dir Wind Speed Gust Speed Precip Events Conditions
12:16 AM 42.8 °F 38.0 °F 33.8 °F 70% 29.83 in 10.0 mi North 8.1 mph - N/A   Scattered Clouds
12:36 AM 42.8 °F 38.6 °F 33.8 °F 70% 29.83 in 10.0 mi North 6.9 mph - N/A   Scattered Clouds
12:56 AM 42.8 °F 38.0 °F 33.8 °F 70% 29.83 in 10.0 mi North 8.1 mph - N/A   Scattered Clouds
1:16 AM 42.8 °F 37.0 °F 32.0 °F 66% 29.84 in 10.0 mi North 10.4 mph - N/A   Mostly Cloudy
1:36 AM 42.8 °F 37.0 °F 32.0 °F 66% 29.84 in 10.0 mi North 10.4 mph - N/A   Mostly Cloudy
1:56 AM 42.8 °F 37.0 °F 32.0 °F 66% 29.84 in 10.0 mi North 10.4 mph - N/A   Overcast
2:16 AM 42.8 °F 36.6 °F 32.0 °F 66% 29.84 in 10.0 mi North 11.5 mph - N/A   Overcast
2:36 AM 41.0 °F 35.8 °F 33.8 °F 76% 29.84 in 10.0 mi NNW 8.1 mph - N/A   Mostly Cloudy
2:56 AM 41.0 °F 35.8 °F 33.8 °F 76% 29.85 in 10.0 mi North 8.1 mph 16.1 mph N/A   Overcast
3:16 AM 39.2 °F 35.0 °F 33.8 °F 81% 29.86 in 10.0 mi NE 5.8 mph - N/A   Overcast
3:36 AM 39.2 °F 35.0 °F 33.8 °F 81% 29.86 in 10.0 mi North 5.8 mph - N/A   Overcast
3:56 AM 39.2 °F 35.9 °F 33.8 °F 81% 29.86 in 10.0 mi North 4.6 mph - N/A   Overcast
4:16 AM 39.2 °F 35.0 °F 33.8 °F 81% 29.87 in 10.0 mi NNW 5.8 mph - N/A   Overcast
4:36 AM 39.2 °F 37.0 °F 33.8 °F 81% 29.88 in 10.0 mi NW 3.5 mph - N/A   Overcast
4:56 AM 39.2 °F 35.0 °F 33.8 °F 81% 29.88 in 10.0 mi NW 5.8 mph - N/A   Overcast
5:16 AM 39.2 °F 33.6 °F 33.8 °F 81% 29.89 in 10.0 mi NW 8.1 mph - N/A   Overcast
5:36 AM 39.2 °F 34.2 °F 33.8 °F 81% 29.89 in 10.0 mi North 6.9 mph - N/A   Overcast
5:56 AM 39.2 °F 33.6 °F 33.8 °F 81% 29.89 in 10.0 mi North 8.1 mph - N/A   Overcast
6:16 AM 37.4 °F 34.9 °F 33.8 °F 87% 29.90 in 10.0 mi ENE 3.5 mph - N/A   Overcast
6:56 AM 39.2 °F 33.0 °F 33.8 °F 81% 29.91 in 10.0 mi North 9.2 mph - N/A   Overcast
7:16 AM 41.0 °F 35.8 °F 33.8 °F 76% 29.92 in 10.0 mi North 8.1 mph - N/A   Overcast
7:36 AM 41.0 °F 36.4 °F 33.8 °F 76% 29.93 in 10.0 mi North 6.9 mph - N/A   Overcast
7:56 AM 41.0 °F 34.7 °F 33.8 °F 76% 29.94 in 10.0 mi North 10.4 mph - N/A   Overcast
8:16 AM 41.0 °F 38.0 °F 33.8 °F 76% 29.95 in 10.0 mi North 4.6 mph - N/A   Overcast
8:36 AM 39.2 °F 35.9 °F 35.6 °F 87% 29.96 in 2.0 mi NNW 4.6 mph - N/A   Drizzle
8:56 AM 39.2 °F 35.0 °F 37.4 °F 93% 29.96 in 10.0 mi NNE 5.8 mph - N/A   Overcast
9:16 AM 41.0 °F 35.8 °F 35.6 °F 81% 29.96 in 10.0 mi North 8.1 mph - N/A   Overcast
9:36 AM 41.0 °F 37.1 °F 35.6 °F 81% 29.96 in 10.0 mi North 5.8 mph - N/A   Overcast
9:56 AM 42.8 °F 38.6 °F 35.6 °F 76% 29.96 in 10.0 mi North 6.9 mph - N/A   Overcast
10:16 AM 42.8 °F 40.1 °F 35.6 °F 76% 29.97 in 10.0 mi North 4.6 mph - N/A   Overcast
10:36 AM 42.8 °F 39.3 °F 33.8 °F 70% 29.97 in 10.0 mi North 5.8 mph - N/A   Overcast
10:56 AM 44.6 °F 39.7 °F 33.8 °F 66% 29.97 in 10.0 mi North 9.2 mph - N/A   Overcast
11:17 AM 44.6 °F 41.4 °F 32.0 °F 61% 29.98 in 10.0 mi WNW 5.8 mph - N/A   Overcast
11:36 AM 44.6 °F 39.7 °F 32.0 °F 61% 29.99 in 10.0 mi NNW 9.2 mph 18.4 mph N/A   Overcast
11:56 AM 46.4 °F 41.9 °F 32.0 °F 57% 30.00 in 10.0 mi NW 9.2 mph - N/A   Overcast
12:16 PM 46.4 °F 42.4 °F 32.0 °F 57% 30.00 in 10.0 mi NNW 8.1 mph 16.1 mph N/A   Overcast
12:36 PM 46.4 °F 41.5 °F 32.0 °F 57% 30.00 in 10.0 mi NW 10.4 mph - N/A   Overcast
12:56 PM 46.4 °F 41.5 °F 32.0 °F 57% 30.01 in 10.0 mi NW 10.4 mph - N/A   Overcast
1:16 PM 46.4 °F 41.9 °F 32.0 °F 57% 30.01 in 10.0 mi WNW 9.2 mph - N/A   Overcast
1:36 PM 46.4 °F 41.5 °F 32.0 °F 57% 30.01 in 10.0 mi WNW 10.4 mph - N/A   Overcast
1:56 PM 46.4 °F 42.9 °F 32.0 °F 57% 30.01 in 10.0 mi WNW 6.9 mph 17.3 mph N/A   Overcast
2:16 PM 46.4 °F 41.5 °F 32.0 °F 57% 30.01 in 10.0 mi NNW 10.4 mph 17.3 mph N/A   Overcast
2:36 PM 46.4 °F 42.9 °F 32.0 °F 57% 30.01 in 10.0 mi NW 6.9 mph 16.1 mph N/A   Overcast
2:56 PM 48.2 °F - 32.0 °F 54% 30.01 in 10.0 mi WNW 9.2 mph - N/A   Overcast
3:16 PM 46.4 °F 42.9 °F 32.0 °F 57% 30.01 in 10.0 mi NNW 6.9 mph - N/A   Overcast
3:36 PM 46.4 °F 42.9 °F 32.0 °F 57% 30.01 in 10.0 mi NW 6.9 mph 17.3 mph N/A   Overcast
3:56 PM 46.4 °F 41.1 °F 32.0 °F 57% 30.01 in 10.0 mi WNW 11.5 mph 16.1 mph N/A   Overcast
4:16 PM 48.2 °F - 32.0 °F 54% 30.01 in 10.0 mi North 5.8 mph - N/A   Overcast
4:37 PM 48.2 °F - 32.0 °F 54% 30.01 in 10.0 mi West 8.1 mph - N/A   Overcast
4:56 PM 46.4 °F 42.4 °F 35.6 °F 66% 30.02 in 10.0 mi WNW 8.1 mph - N/A Rain Light Rain
5:16 PM 48.2 °F - 33.8 °F 58% 30.01 in 10.0 mi NNW 9.2 mph - N/A   Overcast
5:36 PM 48.2 °F - 33.8 °F 58% 30.01 in 10.0 mi NW 6.9 mph - N/A   Overcast
5:56 PM 46.4 °F 42.4 °F 35.6 °F 66% 30.02 in 10.0 mi NNW 8.1 mph - N/A   Overcast
6:16 PM 48.2 °F - 33.8 °F 58% 30.02 in 10.0 mi North 8.1 mph - N/A   Overcast
6:36 PM 46.4 °F 44.3 °F 33.8 °F 62% 30.02 in 10.0 mi NNW 4.6 mph - N/A   Mostly Cloudy
6:56 PM 46.4 °F 43.5 °F 32.0 °F 57% 30.02 in 10.0 mi North 5.8 mph - N/A   Mostly Cloudy
7:16 PM 46.4 °F 43.5 °F 33.8 °F 62% 30.02 in 10.0 mi North 5.8 mph - N/A   Mostly Cloudy
7:36 PM 46.4 °F 44.3 °F 32.0 °F 57% 30.02 in 10.0 mi NNW 4.6 mph - N/A   Overcast
7:56 PM 46.4 °F 44.3 °F 33.8 °F 62% 30.02 in 10.0 mi North 4.6 mph - N/A   Overcast
8:16 PM 46.4 °F 44.3 °F 33.8 °F 62% 30.03 in 10.0 mi North 4.6 mph - N/A   Overcast
8:36 PM 44.6 °F 43.1 °F 33.8 °F 66% 30.03 in 10.0 mi North 3.5 mph - N/A   Overcast
8:56 PM 44.6 °F 43.1 °F 33.8 °F 66% 30.04 in 10.0 mi North 3.5 mph - N/A   Overcast
9:16 PM 42.8 °F - 33.8 °F 70% 30.05 in 10.0 mi Calm Calm - N/A   Mostly Cloudy
9:36 PM 41.0 °F - 33.8 °F 76% 30.05 in 10.0 mi Calm Calm - N/A   Overcast
9:56 PM 41.0 °F - 33.8 °F 76% 30.06 in 10.0 mi Calm Calm - N/A   Overcast
10:16 PM 41.0 °F 38.0 °F 33.8 °F 76% 30.06 in 10.0 mi NNW 4.6 mph - N/A   Overcast
10:36 PM 42.8 °F 39.3 °F 32.0 °F 66% 30.06 in 10.0 mi NNW 5.8 mph - N/A   Overcast
10:56 PM 42.8 °F 39.3 °F 33.8 °F 70% 30.07 in 10.0 mi NNW 5.8 mph - N/A   Overcast
11:16 PM 41.0 °F 38.0 °F 33.8 °F 76% 30.07 in 10.0 mi NNW 4.6 mph - N/A   Overcast
11:36 PM 41.0 °F 37.1 °F 33.8 °F 76% 30.08 in 10.0 mi NNW 5.8 mph - N/A   Overcast
11:56 PM 41.0 °F 38.0 °F 32.0 °F 70% 30.08 in 10.0 mi NNW 4.6 mph - N/A   Overcast